Powrót do katalogu

STARLINK-3878

AktywnyŁącznośćVLEO
NORAD 52479·PAYLOAD·🇺🇸 United States

Wystrzelony May 6, 2022 z Cape Canaveral Space Force Station

Loading…

Następne Przeloty (najbliższe 24 godziny)

TLE

ŚwieżeSource: CelesTrak SupGP

Epoka: Sep 15, 2026, 03:01 UTC

1 52479C 22049AE  26258.12618056 -.00013519  00000+0 -43469-3 0  2583
2 52479  53.1587 274.9033 0001132  84.6657 280.5189 15.31711664    18

Śledź STARLINK-3878 w czasie rzeczywistym z AllMySat

Download on the App Store